Location: ??????????
(54.4061°N, 22.6114°E)
Time: 04:24:59
(UTC+00:00)

STARLINK-32 - Pass Details

Date: 23 October 2019
Orbit: 548 x 551 km, 53.0° (Epoch: 20 November)

Event Time Altitude Azimuth Distance (km) Brightness Sun altitude
Rises 16:23:55 0° 269° (W) 2,718 9.4 -10.7°
Reaches altitude 10° 16:26:09 10° 268° (W) 1,825 7.9 -11.1°
Maximum altitude 16:30:17 74° 184° (S) 577 3.7 -11.7°
Enters shadow 16:33:19 18° 101° (ESE) 1,398 5.1 -12.1°
